User: anonymous   Login
Location: Unspecified
(0.0000°N, 0.0000°E)
Time: 09:31:16
(UTC+00:00)
Language:

Skynet 4C - Orbit

View from above orbital plane
View from above orbital plane
View from above satellite
View from above satellite

Ground track
Ground track

The orbit data is extracted from the following two-line orbital elements,

1 20776U 90079A   18017.62098087  .00000130  00000-0  00000+0 0  9997
2 20776  13.9051  13.9873 0002717 285.3520  74.6566  1.00275843100135
Epoch (UTC): 17 January 2018 14:54:12
Eccentricity: 0.0002717
inclination: 13.9051°
perigee height: 35773 km
apogee height: 35796 km
right ascension of ascending node: 13.9873°
argument of perigee: 285.3520°
revolutions per day: 1.00275843
mean anomaly at epoch: 74.6566°
orbit number at epoch: 10013

The dashed part of the orbit path shows where the satellite is in the earth's shadow,  

DLR